Regional Weather Roundup
Issued by NWS

Home | Current Version | Previous Version | Graphics & Text | Print | Product List | Glossary On
Versions: 1 2 3 4 5 6 7 8 9 10 11 12 13 14 15 16 17 18 19 20 21 22 23 24 25 26 27 28 29 30 31 32 33 34 35 36 37 38 39 40 41 42 43 44 45 46 47 48 49 50
000
ASUS45 KPSR 281600
RWRAZ

PRELIMINARY ARIZONA REGIONAL HOURLY WEATHER ROUNDUP
NATIONAL WEATHER SERVICE PHOENIX AZ
900 AM MST SAT FEB 28 2015

NOTE: FAIR INDICATES FEW OR NO CLOUDS BELOW 12,000 FEET WITH NO
SIGNIFICANT WEATHER AND/OR OBSTRUCTIONS TO VISIBILITY.

AZZ001>003-036-281700-
NORTHWEST ARIZONA

CITY           SKY/WX    TMP DP  RH WIND       PRES   REMARKS
KINGMAN        CLOUDY    49  36  61 SW18      29.74R
$$

AZZ004>008-015-016-018-281700-
NORTH CENTRAL ARIZONA

CITY           SKY/WX    TMP DP  RH WIND       PRES   REMARKS
GRAND CANYON   CLOUDY    36  31  82 SW14      29.73R WCI  27
PRESCOTT       CLOUDY    43  33  68 S13G21    29.80R
FLAGSTAFF      LGT SNOW  34  31  88 SW17      29.75R FOG     WCI  23
PAYSON         MIX PCPN  41  41 100 S13G20    29.84R VSB 1/4
PAGE           SNOW      35  33  92 CALM      29.71R VSB 1/4
$$

AZZ009>014-017-281700-
NORTHEAST ARIZONA

CITY           SKY/WX    TMP DP  RH WIND       PRES   REMARKS
WINSLOW        NOT AVBL
SAINT JOHNS    CLOUDY    46  33  60 SW21G28   29.80R
WINDOW ROCK    LGT SNOW  34  32  92 S3        29.78R FOG
$$

AZZ023-281700-
GREATER PHOENIX AREA

CITY           SKY/WX    TMP DP  RH WIND       PRES   REMARKS
PHOENIX        CLOUDY    61  44  53 S6        29.80R
GLENDALE       CLOUDY    57  55  94 S7        29.83R
LUKE AFB       CLOUDY    57  54  88 SW7       29.80R
DEER VALLEY    CLOUDY    55  51  86 S6        29.81R
SCOTTSDALE     CLOUDY    59  45  59 CALM      29.83R
CHANDLER       PTSUNNY   61  46  59 S17       29.83R
$$

AZZ027-028-281700-
SOUTHWEST MARICOPA COUNTY AND PINAL COUNTY

CITY           SKY/WX    TMP DP  RH WIND       PRES   REMARKS
CASA GRANDE    CLOUDY    59  45  58 S9        29.85R
$$

AZZ503-504-507>509-281700-
SOUTHEAST ARIZONA

CITY           SKY/WX    TMP DP  RH WIND       PRES   REMARKS
TUCSON         MOSUNNY   59  43  55 SW20G29   29.90R
DAVIS-MONTHAN  MOSUNNY   58  43  57 SW12      29.89R
RYAN FIELD       N/A     63  45  51 S21G30    29.89R
NOGALES        CLOUDY    55  41  59 S21       29.94R
SIERRA VISTA   CLOUDY    53  38  56 CALM      29.94R
SAFFORD        MOSUNNY   57  37  47 S9        29.85R
$$

AZZ020-021-025-026-031-281700-
SOUTHWEST ARIZONA

CITY           SKY/WX    TMP DP  RH WIND       PRES   REMARKS
YUMA           MOSUNNY   63  46  54 NW6       29.81R
$$

CAZ031-033-041-043-047-048-061-281700-
SOUTHERN CALIFORNIA

CITY           SKY/WX    TMP DP  RH WIND       PRES   REMARKS
DOWNTOWN L.A.  PTSUNNY   57  46  66 CALM      29.82R
L.A. AIRPORT   PTSUNNY   57  44  62 W14       29.83R
SAN DIEGO      PTSUNNY   60  46  59 W7        29.89R
BURBANK        PTSUNNY   54  41  61 CALM      29.82R
ONTARIO        PTSUNNY   53  44  71 SW8       29.83R
RIVERSIDE      PTSUNNY   54  42  64 CALM      29.84R
PALM SPRINGS   MOSUNNY   60  40  47 S5        29.76R
EL CENTRO NAS  MOSUNNY   65  41  41 SW21      29.80R
IMPERIAL       SUNNY     64  42  44 SW16      29.79R
BLYTHE         MOSUNNY   61  41  47 SW23      29.76R
$$

NVZ020-UTZ003-281700-
SOUTHERN NEVADA-UTAH

CITY           SKY/WX    TMP DP  RH WIND       PRES   REMARKS
LAS VEGAS      NOT AVBL
SALT LAKE CITY CLOUDY    33  26  75 NE5       29.68R WCI  29
$$

NMZ009-TXZ055-281700-
NEW MEXICO-WEST TEXAS

CITY           SKY/WX    TMP DP  RH WIND       PRES   REMARKS
ALBUQUERQUE    FLURRIES  22  18  85 N10       29.95R WCI  11
EL PASO        PTSUNNY   35  25  66 SE7       30.03R WCI  29
$$


........................KEY........................
SKY/WX - SKY CONDITION/WEATHER
TMP    - TEMPERATURE IN FAHRENHEIT
DP     - DEW POINT IN FAHRENHEIT
RH     - RELATIVE HUMIDITY IN PERCENT
WIND   - DIRECTION AND SPEED IN MILES PER HOUR (MPH)
VRB    - VARIABLE WIND DIRECTION
PRES   - MEAN SEA LEVEL PRESSURE IN INCHES OF MERCURY
         F - FALLING PRESSURE   R - RISING PRESSURE
         S - STEADY PRESSURE
VSB    - VISIBILITY IN MILES
HX     - HEAT INDEX IN FAHRENHEIT
WCI    - WIND CHILL INDEX IN FAHRENHEIT
TC     - TEMPERATURE IN CELSIUS WHICH IS ALSO KNOWN AS
         TEMPERATURE IN CENTIGRADE
AFB    - AIR FORCE BASE
         LUKE AFB IS LUKE AIR FORCE BASE
         DAVIS-MONTHAN IS DAVIS-MONTHAN AIR FORCE BASE
NAS    - NAVAL AIR STATION
         EL CENTRO NAS IS EL CENTRO NAVAL AIR STATION
N/A    - NOT AVAILABLE


USA.gov is the U.S. government's official web portal to all federal, state and local government web resources and services.